Wind_Speed
24 24 24 24 24 24 24 23 23 23 23 23 22 23 23 23 23 23 22 22 21 21 21 20 20 20 19 18 16 15 15 15 14 14 15 16 17 17 17 16 14 10 7 7 7 7 7 9 11 11 12 12 12 12 9 8 8 4 3 7 8 8 9 9 10 10 11 11 9 8 10 12 12 15 17 18 19 18 17 17 14 11 12 14 15 17 18 15
22 22 22 23 23 23 23 23 23 23 22 22 21 21 21 21 21 21 20 20 19 20 19 19 20 20 20 19 17 16 15 15 14 14 14 15 16 16 16 15 13 9 6 6 6 7 7 9 11 9 12 12 11 15 13 10 10 9 4 2 5 6 6 7 7 7 10 10 8 8 12 14 13 15 18 18 17 17 17 16 13 12 13 12 13 16 16 15
20 20 20 21 21 21 21 21 22 22 21 21 21 20 20 19 19 19 18 18 18 18 18 18 19 20 20 19 18 16 15 15 14 14 13 14 15 15 15 14 12 9 6 6 5 6 6 8 11 10 12 11 10 14 14 11 11 11 8 3 1 4 4 5 5 6 8 9 9 9 13 15 13 15 19 19 17 16 15 15 14 14 13 11 12 15 15 15
19 19 19 19 19 19 19 20 20 20 20 20 20 19 19 18 18 18 17 17 17 17 17 16 17 19 20 19 17 15 16 15 14 13 12 13 13 13 14 13 12 8 5 5 4 5 6 8 9 9 11 11 11 12 12 11 10 11 9 6 4 1 1 2 4 5 6 8 10 11 13 15 15 17 19 19 17 16 16 15 14 13 14 11 12 14 15 16
20 20 20 19 19 19 18 18 18 19 18 19 19 19 18 18 18 17 17 17 17 17 17 16 16 18 19 18 16 15 16 15 14 12 11 12 12 12 13 12 11 7 4 3 3 4 6 7 8 9 9 11 13 12 10 10 9 11 11 9 7 5 6 3 2 5 6 7 9 10 13 16 19 20 19 19 17 17 17 15 13 13 14 13 13 15 15 15
23 22 22 21 21 20 19 19 18 18 18 18 18 18 18 18 18 18 18 17 17 17 17 16 15 17 18 17 16 15 16 15 13 10 10 11 12 11 11 11 10 6 3 2 2 5 6 6 7 9 9 11 12 12 11 11 10 11 13 12 10 9 8 6 4 5 8 8 10 12 15 18 20 20 20 19 17 17 17 16 15 13 13 13 14 15 14 14
25 25 24 24 23 23 22 21 20 19 19 19 19 19 19 19 19 19 19 18 18 18 18 17 16 16 17 17 16 15 15 15 13 11 11 11 11 11 10 10 8 5 2 1 2 5 6 5 6 8 11 10 10 12 13 14 14 13 13 13 13 12 10 7 6 6 9 10 11 13 16 18 17 18 18 17 17 16 15 15 15 14 13 13 14 13 13 12
28 27 27 27 26 25 24 24 23 22 21 21 21 20 20 20 20 20 20 20 19 19 18 18 17 17 17 17 16 15 15 15 14 12 11 10 9 9 9 8 7 3 0 1 1 4 6 5 5 6 10 9 8 12 14 17 18 17 16 14 14 15 13 11 8 6 9 11 12 12 14 16 15 15 16 15 15 15 15 15 15 15 13 13 14 13 12 11
30 29 29 29 29 28 27 27 26 25 25 24 23 23 23 22 22 22 22 21 21 20 20 19 18 18 17 17 16 15 14 15 14 13 12 10 8 8 7 6 5 3 1 2 3 3 5 4 2 2 6 8 8 11 14 16 19 19 19 16 15 16 16 14 10 5 6 11 12 13 13 15 15 14 15 14 12 12 14 15 14 14 13 14 13 13 12 10
31 30 31 30 31 30 30 30 29 28 28 27 26 26 26 25 25 24 23 23 22 22 21 20 19 19 18 18 17 16 15 15 15 14 13 10 8 7 6 4 3 3 2 4 5 3 4 3 1 2 3 8 9 12 14 16 19 19 20 18 15 17 18 15 14 10 5 10 10 12 12 12 13 13 14 12 11 11 12 14 14 13 13 13 13 12 12 11
31 31 31 31 31 31 32 32 31 31 31 30 30 29 29 28 27 26 26 25 24 23 22 21 20 20 19 18 18 17 16 15 15 16 14 10 7 6 5 4 4 4 3 4 6 6 6 4 3 4 3 9 12 15 14 16 20 19 19 18 17 19 21 18 19 17 9 12 10 12 12 10 11 11 12 11 11 12 12 13 12 12 12 13 13 12 11 10
31 31 31 31 31 31 32 32 32 32 32 33 32 32 31 31 30 29 28 27 26 25 24 23 21 21 20 19 20 18 16 15 17 17 13 9 8 7 7 5 4 5 4 4 6 7 7 7 5 5 6 9 11 13 14 17 20 20 20 19 19 22 23 20 20 20 14 11 9 10 10 9 9 10 11 10 11 11 11 11 11 11 12 13 13 12 11 10
31 31 31 31 31 31 31 32 32 32 33 33 33 33 33 33 32 31 31 30 29 28 26 25 23 22 20 21 21 18 16 16 17 16 12 9 9 9 9 6 5 5 4 5 6 8 7 6 5 4 6 6 6 7 11 18 21 22 22 20 20 22 22 21 19 18 15 11 9 8 8 7 7 7 9 9 10 11 11 10 10 10 12 13 13 12 11 10
30 30 30 30 30 30 30 31 31 31 32 33 33 33 33 34 34 33 33 32 32 30 29 27 25 23 22 24 23 18 17 16 16 17 14 11 10 10 10 8 7 6 5 5 6 8 6 5 4 5 4 6 10 10 13 20 23 24 24 21 21 21 21 19 18 17 14 12 10 8 8 8 7 6 8 10 11 11 11 11 11 10 11 13 13 12 11 10
29 29 29 29 29 29 29 30 30 30 31 31 32 32 33 34 34 34 34 34 33 32 31 29 27 25 23 26 24 19 16 15 17 19 17 14 12 11 11 10 8 7 6 6 7 7 7 7 7 7 4 8 14 14 17 22 24 26 25 23 21 21 20 18 16 16 14 11 10 9 7 7 8 8 9 11 11 11 12 11 10 11 12 13 13 13 11 10
29 29 29 29 29 29 29 29 29 29 29 30 30 31 32 32 33 34 34 34 34 33 32 30 29 26 25 28 26 19 14 15 19 21 18 15 14 13 12 11 10 9 8 7 8 9 10 10 8 7 5 8 12 12 18 22 22 24 23 22 21 19 18 17 15 14 13 11 10 9 8 6 7 8 10 11 11 11 11 10 10 11 12 13 13 13 11 10
29 29 29 29 29 29 29 28 28 28 28 28 29 29 30 30 31 32 33 33 33 33 32 31 30 28 27 28 26 20 16 17 22 23 20 17 16 14 12 12 13 11 10 9 10 10 10 10 8 8 6 8 11 12 18 19 18 19 18 17 18 17 15 15 14 12 12 11 9 8 8 7 6 7 9 10 10 9 9 10 10 10 12 13 13 13 12 11
29 29 29 29 30 29 29 28 28 29 28 28 28 28 28 28 29 30 30 31 31 32 31 31 30 29 28 28 27 24 21 22 25 25 22 19 18 15 13 15 16 13 12 10 11 11 10 10 9 9 8 8 10 12 14 16 16 15 14 14 15 15 13 13 12 10 11 11 9 7 8 8 6 7 9 10 10 10 9 10 11 11 11 12 13 13 12 11
26 27 28 29 29 30 30 29 29 29 29 28 28 28 28 27 27 27 27 27 28 29 29 30 29 29 28 28 29 27 25 26 26 24 23 21 20 17 16 17 17 15 12 11 11 12 12 11 10 9 9 8 8 7 8 12 15 13 13 15 17 15 12 11 11 10 10 11 9 6 7 8 7 7 9 10 10 11 10 10 10 11 12 13 13 13 12 12
24 25 26 27 28 29 30 29 29 29 29 29 28 28 28 27 27 27 26 26 26 27 28 28 27 27 28 28 28 28 27 27 26 24 24 22 20 19 17 18 18 14 12 12 12 13 14 13 12 11 9 7 5 6 8 11 12 11 11 14 18 16 12 11 12 11 9 9 9 8 8 8 7 8 9 11 12 12 12 12 12 12 13 14 14 14 14 13
24 25 25 26 27 28 29 29 29 29 29 29 28 28 27 27 27 27 25 25 25 25 26 27 26 27 27 27 28 29 27 26 26 26 25 22 21 20 18 18 17 13 12 13 14 15 15 14 14 12 9 6 3 9 13 13 11 9 9 16 21 17 15 15 13 11 8 7 9 9 9 9 9 10 12 12 13 13 14 14 13 13 14 14 15 15 15 14
25 25 25 26 26 27 28 28 29 29 30 29 28 27 26 26 26 25 23 23 24 24 24 25 24 25 27 28 28 29 28 26 26 27 25 23 21 19 19 18 16 15 15 16 15 14 13 14 14 12 10 6 5 12 16 13 10 8 12 17 19 14 14 16 12 8 5 4 10 11 10 12 11 12 13 14 15 15 16 16 16 16 16 17 17 16 16 16
24 25 25 25 25 26 26 27 28 29 29 28 26 26 24 24 24 23 21 21 23 23 22 22 21 24 28 28 28 28 26 26 27 25 24 22 20 20 20 19 18 18 18 17 16 13 12 15 16 13 12 8 6 14 17 14 11 9 11 13 11 8 9 15 13 7 3 3 9 12 10 11 12 12 13 15 15 16 17 18 18 18 19 19 18 18 18 17
24 25 24 24 24 24 25 26 28 28 28 26 25 24 23 23 23 22 21 20 22 23 21 21 21 23 26 28 28 28 26 27 26 24 23 22 21 20 20 20 19 20 19 18 16 13 13 16 18 15 13 9 7 15 19 16 13 11 8 5 6 6 4 9 13 7 5 2 8 12 10 10 11 12 14 15 14 15 16 18 19 18 17 17 18 17 17 15
24 24 24 23 22 22 23 25 26 26 26 25 24 23 23 23 23 22 21 19 19 22 21 19 19 21 26 30 28 27 26 25 23 22 23 22 21 21 21 22 21 19 18 18 17 14 14 17 18 16 13 9 9 18 22 18 17 13 7 5 7 7 3 6 11 7 7 3 6 11 10 10 10 9 12 14 14 13 14 15 16 16 15 14 15 15 14 12
22 23 22 20 20 21 22 23 24 24 24 24 23 23 23 23 22 21 21 17 17 21 20 17 19 21 26 27 24 24 25 23 21 21 21 22 23 22 22 22 20 18 18 19 19 16 16 17 16 14 14 11 11 19 25 22 19 15 7 9 7 4 3 4 6 3 6 6 7 7 6 10 11 10 9 10 13 12 12 12 13 14 13 12 13 12 11 10
19 19 17 16 17 18 20 21 21 22 23 23 23 22 21 20 19 19 18 16 17 20 17 16 18 20 22 24 24 24 23 19 18 20 21 23 24 24 23 22 20 18 18 20 19 16 17 18 14 13 13 11 10 19 25 24 22 17 9 10 9 8 8 4 4 3 3 6 5 4 3 9 11 12 10 9 11 11 11 11 11 12 12 12 12 10 9 9
14 13 11 11 13 15 17 18 19 20 21 21 21 21 20 19 18 17 17 16 16 16 14 14 18 19 21 23 23 21 18 17 18 20 23 24 25 25 24 21 19 17 19 21 17 15 16 16 12 12 11 10 15 24 27 24 23 18 10 6 6 8 6 4 3 4 2 2 3 4 3 8 10 13 12 11 12 12 12 11 10 11 11 12 12 10 8 7
8 7 6 7 10 12 14 15 17 18 19 20 20 19 19 18 18 17 16 14 13 12 13 15 17 18 18 18 17 17 18 18 19 21 24 24 24 25 23 21 19 18 20 20 17 16 17 15 14 14 13 14 23 28 26 23 22 19 13 5 2 3 0 3 7 11 8 3 6 7 1 8 10 12 12 13 12 12 12 11 10 10 10 11 11 10 8 6
7 6 5 7 10 11 12 14 15 17 19 19 18 18 18 18 17 16 16 14 12 12 14 15 16 16 15 13 13 16 19 19 19 22 24 24 23 23 23 23 23 22 22 21 19 18 17 16 15 14 13 17 25 27 23 21 21 21 17 12 9 7 3 5 9 15 11 5 6 8 3 9 11 10 11 13 12 10 9 8 8 9 9 9 10 10 8 5
8 7 7 8 10 11 12 14 15 17 18 17 17 17 17 17 16 15 14 13 12 12 13 13 15 16 15 15 14 14 17 19 21 24 24 23 24 25 26 27 26 25 25 22 19 16 16 16 14 12 12 16 23 26 23 20 22 24 22 19 19 17 12 10 14 13 6 2 6 9 5 7 9 8 9 10 10 9 7 5 6 9 10 9 9 9 7 4
8 8 8 9 11 11 12 14 15 16 15 15 16 16 17 16 14 13 12 11 11 13 12 9 9 11 14 16 16 14 16 18 19 22 24 23 23 24 26 27 26 25 22 18 15 15 15 15 13 12 14 15 18 23 26 24 23 25 24 24 26 25 22 17 15 10 4 2 5 10 6 6 6 6 7 6 6 7 5 4 5 9 10 9 9 8 5 2
8 8 7 9 10 10 12 13 14 14 15 15 15 16 16 13 12 13 14 14 14 15 13 10 6 7 10 13 16 16 16 18 19 19 21 22 21 21 24 26 26 23 20 16 17 17 14 14 13 11 12 12 11 17 25 27 27 26 23 24 28 30 27 19 14 10 8 4 4 10 8 4 2 4 7 5 4 5 5 4 6 9 10 8 7 6 3 1
7 6 6 8 9 11 12 13 13 14 14 14 15 15 13 10 13 16 17 19 20 18 17 16 12 8 7 9 14 16 15 17 18 18 19 20 20 20 22 25 26 24 21 20 20 19 15 15 14 9 9 10 8 12 22 28 29 25 19 22 29 32 29 20 12 9 9 7 8 13 12 5 3 1 5 3 2 2 3 6 8 9 8 6 5 5 3 1
8 7 5 7 9 11 11 12 13 14 14 14 14 12 10 12 16 20 22 23 22 19 18 18 17 12 7 5 9 13 14 15 16 18 19 20 19 19 20 23 25 24 23 22 20 19 16 15 12 8 11 11 5 7 19 27 29 25 21 25 31 30 27 21 12 7 7 10 12 14 10 6 8 6 4 4 5 3 3 7 10 10 8 6 5 3 1 1
9 8 7 7 8 9 11 12 13 13 13 14 12 9 12 16 21 24 26 24 23 19 15 14 16 13 6 2 3 8 14 14 14 17 18 19 18 18 17 20 23 24 23 21 19 17 14 12 12 11 13 11 6 2 15 26 28 25 23 26 26 20 17 15 12 9 8 8 8 10 10 8 10 9 6 5 5 4 4 6 11 11 7 6 5 6 7 6
8 8 9 9 8 9 11 12 13 13 13 12 10 12 16 21 25 28 27 26 25 20 15 13 13 11 5 3 1 3 9 12 14 15 16 17 17 16 16 17 21 24 23 19 18 16 13 13 15 15 13 12 6 2 11 23 27 24 23 23 21 17 12 10 9 10 10 7 7 10 10 10 13 12 9 6 4 6 4 6 11 8 6 7 7 8 10 7
8 7 8 9 9 10 11 11 12 12 11 10 11 15 20 24 28 30 28 29 27 22 20 19 16 15 9 10 9 7 7 7 8 10 12 16 16 14 14 13 16 21 22 20 19 16 14 14 14 14 12 10 8 8 11 20 27 26 26 26 24 21 15 10 7 7 7 6 8 10 10 13 15 14 12 7 4 7 5 6 9 6 6 7 4 1 1 1
7 7 7 7 9 10 10 11 11 10 10 11 13 17 21 25 31 32 30 30 28 25 24 24 24 25 22 19 16 12 9 8 5 6 8 14 15 12 11 9 10 16 20 22 21 17 16 16 12 11 11 9 11 13 12 19 30 32 29 28 28 24 18 13 10 10 10 9 10 11 12 12 9 11 12 7 6 6 3 5 5 3 3 2 5 8 8 5
8 7 7 7 8 8 9 9 10 11 12 13 15 19 23 27 33 35 32 30 29 28 26 26 29 30 27 22 18 14 13 14 10 7 7 9 11 11 9 8 8 13 20 22 20 18 18 19 16 13 14 14 14 12 6 12 26 35 33 30 28 23 19 16 13 11 12 11 12 13 15 15 12 12 12 6 5 5 3 5 5 3 3 7 10 10 9 9
9 9 8 8 8 8 8 8 9 11 13 15 17 21 25 29 33 37 35 32 31 31 30 29 29 30 28 26 21 16 15 17 14 10 7 7 9 12 10 7 4 8 18 22 21 21 22 22 20 17 17 16 14 11 5 4 16 27 32 31 27 21 18 17 13 10 10 10 13 13 14 15 10 9 9 3 3 6 6 7 7 6 7 10 13 15 16 17
10 9 8 8 8 8 8 8 8 11 15 18 21 24 26 30 34 37 37 35 34 34 34 32 30 30 29 28 25 20 17 17 15 12 6 4 5 8 8 5 3 6 15 21 22 20 22 24 23 21 19 16 15 13 10 7 10 20 29 29 25 20 19 20 15 11 10 10 13 13 11 10 4 3 5 3 4 6 7 9 9 10 13 16 19 20 21 22
10 9 8 8 8 8 9 10 11 14 17 19 23 25 27 31 36 38 38 38 37 37 37 35 31 30 30 29 29 25 19 17 17 13 9 7 8 10 8 4 4 8 14 19 20 18 20 26 26 24 21 19 17 14 13 12 12 22 30 27 25 23 23 23 16 10 10 9 11 11 8 7 5 3 5 6 7 9 12 14 15 16 19 22 24 24 23 23
9 9 8 7 9 10 11 12 13 13 13 15 20 24 27 32 37 38 38 38 38 38 38 36 31 29 31 32 31 28 23 21 20 19 17 16 14 14 12 8 7 11 14 16 17 16 19 24 27 27 23 19 17 14 14 15 17 26 31 28 28 27 26 26 18 9 10 10 12 14 11 9 7 7 9 10 11 12 14 17 18 19 22 25 26 26 24 19
7 7 7 7 8 10 11 12 11 10 11 14 18 23 27 33 37 37 37 37 37 37 37 35 31 29 31 34 33 30 28 26 24 22 22 22 20 17 15 15 13 12 12 14 16 17 17 18 23 28 26 21 18 15 13 13 16 24 30 29 30 29 25 24 18 11 11 12 13 13 13 14 12 12 14 13 13 13 14 16 17 20 24 25 25 23 18 13
7 8 9 10 10 10 10 10 10 12 15 16 19 23 28 35 38 37 36 35 35 37 36 32 30 30 32 34 34 31 30 29 27 25 25 25 25 21 19 22 21 14 13 16 18 20 19 17 19 23 25 23 18 14 13 13 14 18 24 29 32 31 27 23 20 17 14 13 14 14 13 13 13 14 14 14 14 13 14 15 19 22 24 24 21 16 12 10
8 9 10 10 10 10 10 10 11 13 16 18 21 24 28 35 40 39 37 34 33 36 37 31 27 29 35 36 35 33 31 30 28 27 28 29 29 27 24 25 26 22 19 18 22 24 22 20 20 22 25 25 21 17 17 18 18 17 20 26 30 31 28 25 23 20 16 14 15 16 14 11 11 13 14 17 18 17 18 20 22 24 25 25 19 12 10 12
9 10 11 10 10 11 10 11 11 12 15 18 21 24 28 35 40 41 39 37 35 35 36 34 27 25 32 37 36 33 32 32 31 31 33 34 32 31 27 24 24 26 24 20 24 26 22 20 22 24 25 27 27 23 20 20 21 20 19 23 25 26 26 27 25 20 18 17 19 22 20 14 14 18 20 22 23 22 22 22 22 23 24 24 21 17 18 19
12 11 11 10 10 11 11 11 12 12 14 18 21 25 28 32 38 42 42 41 39 35 33 34 31 26 30 37 38 35 34 35 34 34 36 37 35 34 29 23 23 28 30 27 26 25 20 19 24 26 25 27 32 30 24 22 23 22 21 23 23 21 22 24 22 19 20 21 21 23 24 21 20 21 21 22 23 23 24 24 23 23 24 24 24 24 25 25
14 13 12 11 11 12 12 13 13 13 15 19 23 25 28 31 36 42 42 40 38 34 32 32 31 29 32 39 42 40 38 39 39 37 37 36 36 37 32 26 26 30 32 31 29 26 22 20 23 27 28 28 33 35 28 26 28 27 26 26 24 22 23 24 23 22 24 25 24 23 22 21 20 19 20 23 25 27 28 27 25 25 25 26 26 27 27 27
16 14 13 13 13 14 14 14 14 14 17 21 23 24 26 29 33 37 39 37 34 33 32 30 30 32 35 41 45 46 42 41 42 42 39 36 37 40 36 29 26 26 29 30 28 26 25 22 23 27 29 28 32 36 32 29 31 30 28 27 24 23 25 27 27 26 24 24 25 25 23 21 21 21 22 25 27 27 27 25 24 25 25 25 26 27 27 27
18 16 15 14 15 16 16 15 16 17 18 20 22 24 24 25 28 32 35 36 34 33 32 31 31 34 37 40 45 47 46 43 42 42 40 38 41 43 38 31 24 23 27 31 29 27 26 25 25 28 30 28 29 35 37 35 34 30 29 30 27 25 26 29 30 29 25 23 24 25 25 24 25 25 25 25 26 26 25 25 25 26 25 24 25 26 26 27
Wind_Direction
263 263 262 261 261 261 261 260 261 261 260 259 259 258 258 259 260 262 263 263 262 262 262 261 263 265 268 272 277 283 288 295 303 310 316 325 333 341 350 354 356 357 5 15 11 11 16 27 35 45 40 30 24 17 14 11 9 9 279 258 257 252 251 251 247 243 236 229 216 213 199 180 181 178 174 176 170 162 158 153 144 139 135 137 143 138 141 152
263 263 262 261 260 260 259 259 259 258 258 258 257 257 256 256 258 259 262 263 262 262 261 260 260 262 264 266 271 277 282 290 296 304 312 321 330 339 348 352 355 353 3 14 9 15 25 36 40 40 30 28 26 16 13 17 18 27 33 252 250 251 247 245 248 240 231 215 194 195 187 176 180 184 178 172 163 157 154 150 140 132 132 137 137 133 138 145
264 263 263 262 260 259 258 257 256 256 256 256 256 255 255 255 255 257 259 262 263 262 262 260 259 261 263 263 266 271 277 283 288 297 307 318 327 336 346 350 351 352 3 13 15 26 38 44 39 29 24 30 25 13 15 22 23 32 43 65 181 243 242 229 223 222 218 189 176 184 181 177 176 181 180 167 152 146 145 141 136 128 128 136 134 129 132 134
263 263 263 262 261 259 258 256 255 254 253 253 253 253 253 253 254 255 257 260 262 263 263 261 259 261 263 263 263 266 271 276 282 290 302 315 323 332 342 348 349 352 6 17 23 36 43 44 36 25 21 27 25 16 19 26 35 47 49 60 76 29 355 212 202 200 197 168 174 185 185 181 169 173 175 162 150 144 136 134 135 126 125 136 135 130 131 130
262 262 262 262 261 260 258 257 256 254 253 252 251 251 251 252 253 254 256 258 260 262 262 261 260 261 264 264 262 262 266 273 280 288 301 312 317 326 339 346 348 350 10 28 39 52 56 52 41 31 23 23 25 27 30 34 45 56 54 56 65 49 45 58 148 175 181 168 173 183 189 181 165 166 165 154 149 146 139 132 131 126 132 142 138 133 132 131
261 261 261 261 260 260 259 258 257 256 254 253 251 251 250 251 252 253 255 256 258 259 261 260 259 260 263 265 262 260 264 272 278 286 298 306 311 321 336 344 346 349 6 26 60 72 72 63 46 32 23 25 29 35 42 45 48 57 57 54 65 67 57 57 79 147 173 173 166 168 174 171 162 161 157 149 145 144 142 134 131 133 140 142 137 135 134 132
261 260 260 259 259 259 258 258 257 256 255 254 253 251 251 251 251 252 253 255 256 257 258 259 259 259 262 265 263 260 261 267 273 280 288 294 304 316 331 341 342 344 353 19 81 89 90 66 41 30 23 26 36 46 50 51 48 50 53 55 69 77 66 56 66 118 151 163 165 165 166 163 158 154 148 144 141 138 138 134 134 140 143 138 133 133 133 132
261 260 260 259 258 257 257 257 256 255 254 254 254 252 251 251 251 251 252 253 254 255 256 257 258 257 260 263 263 260 258 263 268 272 275 284 299 312 327 338 340 334 326 124 150 115 100 66 38 39 36 38 49 58 60 59 56 50 49 55 70 76 64 53 59 96 130 137 148 157 160 159 155 147 141 140 142 142 141 141 142 144 141 134 132 131 129 129
262 261 260 259 258 257 256 255 255 255 254 253 253 253 252 251 251 251 250 251 251 253 253 254 256 257 258 260 261 259 257 260 262 262 263 272 292 307 321 331 332 309 218 164 181 136 107 83 56 79 56 61 69 68 68 66 66 60 51 50 63 72 62 56 55 57 127 132 138 149 150 152 150 146 145 142 146 148 148 149 148 146 143 136 134 133 131 132
262 261 261 260 259 258 257 255 254 254 254 253 252 252 252 251 250 250 249 249 249 250 251 252 253 255 257 257 260 258 254 256 255 254 253 257 279 297 305 312 304 281 220 175 173 171 166 142 139 201 67 68 73 65 63 64 69 67 59 52 53 63 60 60 57 47 132 145 138 148 151 155 158 157 157 154 156 156 153 152 151 150 146 141 138 137 138 138
262 261 260 259 258 258 257 256 255 254 254 253 252 252 251 250 249 249 249 248 248 248 249 250 251 253 255 256 257 254 251 252 251 250 248 247 264 273 268 272 279 267 227 189 183 189 186 156 167 207 113 81 73 63 59 60 63 63 63 60 50 55 56 56 55 52 106 147 142 147 149 156 165 169 168 164 163 161 159 157 154 152 149 145 144 143 144 143
261 260 259 258 258 257 257 256 256 255 254 253 253 252 252 251 250 249 249 248 247 247 248 249 249 250 253 254 252 250 249 249 250 252 249 248 257 255 256 259 264 261 228 206 198 197 188 162 173 186 134 106 77 62 62 63 62 56 58 58 51 53 51 47 50 53 79 117 130 139 140 149 165 172 172 169 165 165 166 162 156 153 152 151 150 150 151 149
261 260 260 259 258 256 256 255 255 254 253 253 253 252 252 251 251 249 249 248 247 247 247 247 248 249 250 251 249 248 247 246 251 256 251 249 255 253 255 248 245 251 234 220 204 204 200 171 182 185 147 113 74 72 79 77 69 58 55 55 55 56 49 43 46 51 66 88 108 128 132 142 162 174 175 172 168 168 168 162 157 157 158 158 155 155 157 155
261 260 260 259 258 257 256 255 254 253 252 252 251 250 250 250 249 249 247 247 247 246 246 246 247 247 247 249 247 244 245 245 248 251 244 238 244 246 246 238 231 235 236 232 213 213 206 181 197 191 154 81 87 104 98 86 74 63 56 51 52 54 50 44 44 48 59 77 96 114 122 129 139 149 162 168 169 171 168 159 154 155 160 164 161 160 162 161
261 260 260 259 259 258 257 256 255 254 253 251 250 249 249 248 248 247 246 246 246 245 245 245 246 245 245 247 246 242 244 244 242 245 239 232 235 236 237 238 231 223 227 230 222 217 209 207 200 179 158 97 102 106 97 86 74 66 56 46 43 47 50 46 44 49 54 66 85 101 112 122 127 126 138 151 154 159 162 158 154 155 161 167 166 163 165 165
261 260 259 259 258 257 257 257 256 255 254 253 251 249 248 247 246 246 245 245 245 245 244 244 244 242 242 245 245 240 238 236 239 244 239 229 230 230 232 236 225 215 222 222 217 214 215 220 202 182 179 130 120 106 93 86 75 68 55 42 34 36 49 47 43 49 50 56 71 85 93 96 113 121 129 138 141 147 156 160 162 160 163 168 168 166 166 163
262 261 259 258 257 257 256 256 256 256 255 254 252 250 248 246 246 245 244 244 243 243 243 242 242 240 240 244 245 239 230 228 233 239 236 225 225 225 221 223 220 221 230 220 209 214 219 226 215 194 181 143 132 107 92 90 83 74 61 49 35 31 45 49 44 47 50 52 55 72 88 91 106 123 130 138 140 147 158 165 170 167 166 170 168 165 163 160
263 261 259 258 257 256 255 254 255 255 255 254 253 251 249 247 245 244 244 243 242 242 241 240 240 238 237 241 242 234 225 225 230 235 235 226 221 220 212 215 224 232 237 222 206 209 214 225 226 194 175 157 138 111 100 103 95 80 70 65 52 42 46 50 46 46 55 57 53 67 89 96 109 124 131 140 145 149 156 163 169 167 165 167 164 161 159 157
264 262 260 258 256 255 254 253 252 253 253 253 252 251 249 247 245 243 243 241 241 240 238 237 237 236 235 237 240 236 227 227 232 235 237 230 218 216 214 215 226 236 237 223 205 204 208 216 223 203 182 172 152 130 121 112 94 73 67 69 61 51 47 50 48 47 62 67 61 72 86 94 110 123 131 138 141 144 145 150 159 161 159 159 156 155 155 153
268 265 262 259 256 254 253 251 250 250 251 251 251 250 249 247 245 243 241 240 239 236 235 233 232 233 232 233 237 237 231 230 233 231 230 232 222 215 216 219 225 232 232 222 204 201 203 202 211 215 193 177 170 153 142 123 95 66 72 76 55 41 45 51 46 45 62 75 75 81 85 95 113 122 126 129 131 135 137 141 151 155 155 152 148 147 147 147
270 268 266 262 258 254 251 249 248 247 248 248 248 248 248 246 244 242 240 239 238 236 234 229 226 228 229 230 232 234 232 230 231 228 224 227 227 218 215 221 225 226 225 220 210 204 201 195 203 212 198 188 157 131 131 125 99 66 88 81 50 46 65 57 43 39 47 84 94 91 95 103 111 114 117 119 122 129 133 136 143 147 145 141 138 138 138 138
270 269 267 263 259 255 251 248 246 244 245 245 246 247 247 247 246 244 240 239 239 236 234 229 223 225 228 227 230 232 231 229 229 230 227 224 226 222 215 219 222 221 221 222 218 207 195 194 204 207 197 189 131 128 130 123 108 89 100 84 53 53 65 47 42 47 36 101 111 101 100 103 103 107 110 113 117 121 125 127 130 131 128 126 125 126 127 129
271 269 266 263 259 255 250 246 244 243 243 244 245 246 247 248 249 247 242 239 240 237 232 228 218 221 228 226 227 230 230 230 229 231 232 227 224 222 216 214 215 217 221 224 222 208 186 194 208 208 197 188 152 138 133 126 119 99 98 94 68 49 37 29 32 52 62 121 122 109 100 101 102 104 106 108 113 116 117 116 115 116 116 118 119 120 122 124
271 269 266 263 259 255 249 244 242 241 241 242 243 244 245 246 245 244 239 234 238 237 229 223 214 216 228 228 225 226 225 228 229 228 232 229 224 221 218 215 214 216 219 222 224 208 185 197 210 209 199 192 162 137 129 125 115 90 75 92 75 46 26 16 15 43 95 107 127 117 110 110 107 109 111 110 111 112 113 112 110 109 111 116 119 119 121 124
272 270 268 265 261 254 247 241 239 238 239 239 240 241 241 241 239 237 234 227 231 236 226 216 208 211 226 230 225 225 225 226 228 227 227 227 225 222 219 217 214 215 216 220 224 206 192 206 211 207 198 189 163 139 131 124 115 107 81 47 49 53 66 4 8 61 93 69 124 121 121 125 115 116 120 117 115 113 113 113 112 113 116 119 120 121 123 124
273 272 270 266 259 251 243 238 236 235 235 235 236 237 237 238 236 234 232 222 222 232 224 209 204 210 226 233 230 228 227 226 226 227 223 220 221 220 220 219 213 214 214 218 223 205 196 210 214 210 195 186 179 153 140 129 127 139 123 59 58 115 141 355 357 83 84 83 116 110 126 143 134 129 129 128 127 121 118 118 118 122 128 128 122 123 126 124
277 274 270 263 253 244 238 234 232 231 232 232 233 235 236 238 238 236 234 221 217 227 222 206 204 212 226 231 229 227 226 224 224 227 224 219 218 217 219 219 214 212 214 218 222 207 200 207 213 220 201 181 183 164 148 139 142 153 133 77 84 137 171 222 257 234 100 101 98 63 123 158 150 143 143 145 141 134 129 130 133 136 142 141 129 129 134 132
279 273 266 253 242 237 234 231 228 228 229 230 231 233 234 235 234 233 229 221 220 225 217 204 203 209 222 227 229 229 224 221 220 222 224 221 220 218 217 218 214 213 217 220 218 209 208 207 202 211 202 170 161 159 150 146 151 149 124 95 96 112 152 206 263 285 262 114 22 18 125 162 158 149 153 160 157 152 145 148 154 152 157 155 143 142 151 151
276 267 251 236 234 232 230 228 226 227 228 228 228 229 230 230 229 226 222 217 214 213 208 204 202 207 219 227 229 227 220 217 218 223 224 221 220 220 217 216 213 215 221 220 215 210 207 199 191 196 192 166 157 157 151 149 155 146 118 108 139 108 13 316 329 310 289 282 333 344 156 174 164 152 159 167 166 161 154 157 167 166 168 165 156 155 166 174
266 256 238 230 233 230 226 224 223 225 226 225 226 227 227 227 224 220 217 210 201 197 200 201 201 204 213 218 217 217 215 212 216 224 226 222 218 216 216 215 212 213 218 217 214 215 208 198 197 195 184 169 164 164 159 152 155 152 137 131 147 163 227 284 296 293 286 279 317 326 277 189 173 158 161 166 164 163 157 161 176 180 177 171 162 161 168 178
268 259 243 235 233 225 222 219 219 224 224 223 225 225 226 224 220 215 210 200 190 187 190 193 200 205 207 209 206 210 211 208 213 222 226 223 215 209 210 214 214 213 217 215 211 219 218 211 210 197 186 179 174 176 176 166 161 162 157 152 159 170 187 223 254 271 293 332 318 316 285 190 177 168 161 157 161 165 163 174 192 194 190 179 169 167 168 169
275 265 248 236 230 222 219 217 219 224 223 224 224 223 224 222 216 207 193 182 177 179 180 181 197 208 208 208 203 205 213 212 213 222 226 227 222 212 209 214 216 215 219 218 214 221 223 224 223 203 194 191 183 184 187 185 178 173 170 169 172 176 181 206 238 259 305 330 304 305 277 178 172 179 155 135 159 173 176 190 196 197 196 184 175 176 175 158
283 272 252 237 229 219 217 216 216 220 221 222 221 223 223 215 205 194 176 168 164 163 169 162 160 193 205 211 205 201 212 218 214 219 227 229 228 220 212 214 217 216 215 213 215 219 220 224 220 198 191 196 190 188 188 188 185 180 179 180 180 178 179 197 228 251 279 273 277 294 269 193 157 171 142 111 145 174 183 189 186 190 191 183 177 176 171 148
290 282 261 238 226 216 214 214 214 215 218 219 219 223 217 198 194 181 166 169 171 171 178 172 160 163 182 210 211 201 208 220 217 217 224 226 226 224 215 213 214 214 211 209 213 215 213 220 217 192 175 182 190 191 184 183 184 184 183 183 184 181 176 185 211 239 268 262 250 265 254 239 318 244 145 131 185 194 195 200 200 193 180 169 165 156 153 239
284 283 273 243 227 219 214 214 215 215 215 214 217 217 196 184 183 171 170 178 178 181 187 181 172 156 145 207 224 209 207 217 218 216 222 224 223 224 219 216 216 214 212 212 213 215 215 220 218 187 156 151 148 184 186 187 188 188 186 187 189 185 175 178 192 211 252 251 240 249 255 276 303 287 206 202 225 226 236 224 207 192 170 152 149 139 147 261
277 272 268 252 236 225 217 217 217 216 215 214 210 194 178 181 176 173 181 178 168 173 181 184 181 153 126 236 249 214 210 215 221 218 220 223 222 223 220 215 215 216 215 213 212 217 218 214 211 191 156 131 90 141 193 195 193 191 190 187 184 173 168 182 190 199 235 249 244 263 282 287 289 284 254 236 224 211 244 226 191 178 160 136 111 94 102 103
282 270 262 256 246 233 224 221 219 217 217 212 196 180 180 182 177 179 183 174 169 174 168 176 178 140 122 254 142 168 204 214 227 226 223 225 221 221 219 211 211 216 215 210 210 215 211 207 213 202 168 138 121 184 202 197 196 191 178 169 166 163 178 205 197 202 229 247 256 268 269 253 258 265 268 274 235 201 213 192 183 182 149 122 101 99 110 98
292 280 265 254 245 239 232 227 223 219 215 204 189 187 186 182 180 182 184 180 181 176 163 166 164 151 183 217 188 176 179 192 240 249 237 236 230 219 219 211 208 215 214 206 204 204 197 199 212 207 180 155 173 208 206 193 189 179 163 157 164 173 193 215 209 214 232 246 258 261 250 243 248 251 262 280 217 189 184 181 194 193 145 121 96 83 199 3
293 288 274 258 247 241 237 232 225 218 212 199 191 191 189 185 184 184 187 189 188 180 171 168 163 169 190 203 198 199 184 176 228 256 241 248 245 226 218 212 201 205 209 206 201 197 188 181 182 192 186 178 194 203 204 194 183 174 170 169 169 171 184 201 211 227 237 245 252 254 253 255 251 236 243 247 197 189 202 214 223 202 134 44 334 314 295 278
281 277 271 264 255 245 237 232 222 211 206 199 192 191 191 188 186 186 189 192 189 184 182 176 170 175 185 189 192 198 193 189 196 209 231 257 247 223 210 208 195 192 201 203 197 193 188 174 165 180 193 195 195 182 179 210 195 186 187 188 183 177 179 189 201 223 234 240 246 256 264 263 249 217 212 217 208 215 252 258 273 303 305 314 313 306 296 285
276 271 268 265 259 250 238 229 219 209 202 198 195 194 194 190 187 188 192 195 190 186 188 187 181 179 178 179 183 186 194 198 185 180 217 253 235 221 211 193 176 193 200 197 193 195 192 177 169 185 198 197 190 170 138 231 218 200 194 194 192 182 178 184 186 196 216 232 238 245 259 262 248 193 181 213 249 225 238 257 269 277 281 295 295 289 291 298
277 271 266 263 258 250 241 227 214 206 201 199 196 196 195 192 190 192 196 198 193 186 189 192 188 182 178 178 184 186 192 198 181 166 197 225 193 197 196 161 134 209 211 196 189 195 196 186 178 186 197 193 187 190 192 203 221 202 191 191 190 181 181 183 174 173 199 232 242 238 251 262 259 146 167 218 260 253 271 281 274 274 284 292 290 286 293 303
281 274 267 264 257 245 237 227 218 214 212 208 202 198 195 191 191 195 199 201 197 191 193 195 189 184 182 182 188 191 188 188 177 167 183 183 147 150 164 148 144 202 222 204 183 183 195 194 186 184 193 196 190 193 197 198 206 196 188 189 188 186 186 181 174 178 193 222 241 229 238 265 270 266 220 218 251 278 292 291 282 281 285 288 288 289 297 307
289 285 278 271 264 254 244 238 237 235 228 220 211 203 197 192 192 197 203 204 202 200 202 201 190 183 186 186 189 192 189 184 178 175 180 179 169 169 174 173 179 199 218 213 194 190 195 196 191 188 189 191 191 194 196 203 206 194 190 190 188 187 185 178 179 192 189 204 226 223 240 273 280 275 259 250 264 277 282 282 279 282 287 292 296 297 300 305
293 282 268 257 253 254 252 251 251 241 223 215 212 205 196 192 193 199 205 206 206 206 206 204 197 190 191 191 190 192 190 186 183 182 179 175 176 185 184 179 188 206 213 214 216 213 205 197 194 193 191 186 189 197 199 213 214 195 191 192 186 183 181 179 187 199 199 213 224 227 252 273 266 255 252 256 266 272 276 279 280 286 295 303 304 300 297 299
289 271 257 250 246 246 247 247 245 233 216 204 204 203 196 190 192 199 205 207 210 210 206 208 209 202 198 194 192 194 192 188 188 186 183 179 182 193 195 181 179 194 211 220 225 217 212 215 210 205 201 192 188 193 196 209 214 194 190 193 187 179 179 185 196 200 200 211 218 226 249 264 256 245 242 244 251 260 270 277 283 290 298 305 304 297 294 298
292 279 269 263 258 251 242 238 237 239 232 213 200 199 197 193 193 198 204 206 213 215 212 217 219 207 201 198 194 195 194 191 192 191 187 186 189 196 197 183 179 186 198 217 226 214 206 212 216 217 215 201 187 187 193 202 210 199 186 186 187 186 188 193 196 197 201 211 221 234 245 251 254 254 252 254 258 265 275 282 289 294 298 303 305 300 302 303
297 285 276 271 265 255 246 237 230 236 239 224 202 195 198 198 196 199 205 209 215 220 219 222 225 213 205 203 198 198 197 194 195 196 193 190 193 196 193 186 187 190 190 205 222 216 206 208 213 217 218 205 188 183 187 196 207 207 188 177 182 190 197 201 201 203 211 220 233 245 245 245 260 272 273 269 268 272 279 285 290 294 297 302 304 305 309 309
301 288 279 273 264 258 251 243 232 227 228 222 207 197 198 200 199 201 207 212 215 221 226 227 231 227 214 207 204 203 202 199 197 197 194 192 193 194 190 186 193 197 197 201 211 215 219 228 228 225 223 209 188 181 187 193 198 205 200 186 182 187 197 205 209 213 216 221 233 243 243 244 256 269 272 268 266 268 271 275 281 289 295 298 302 308 311 311
302 292 283 272 263 257 248 243 239 228 219 215 211 205 201 200 200 202 208 213 214 218 226 228 226 222 213 207 207 208 206 203 200 197 195 194 193 192 191 196 202 204 205 206 207 212 221 233 232 228 230 219 193 183 189 195 195 201 204 197 194 200 203 202 206 215 221 226 229 229 231 240 246 251 257 261 262 265 268 272 279 287 292 295 301 309 311 311
297 292 285 274 264 256 248 243 240 231 222 217 213 211 208 205 205 205 208 212 211 210 216 219 213 207 205 206 209 210 209 207 204 202 203 202 196 193 195 203 205 200 201 203 204 208 215 222 224 221 225 224 204 191 192 197 198 198 198 196 199 210 212 205 204 212 218 223 224 222 226 238 245 249 257 261 263 267 273 277 281 283 286 290 297 304 305 306
291 288 284 276 267 260 252 245 240 234 232 226 215 212 214 211 209 209 209 210 210 209 210 211 207 202 201 205 210 213 213 212 209 206 207 204 197 195 199 200 193 187 192 197 199 204 209 213 214 213 216 221 213 201 200 203 201 196 197 199 199 205 210 207 207 210 211 212 216 222 230 238 243 248 255 258 261 267 274 278 280 281 280 283 290 294 296 297
Height
5882 5882 5883 5883 5883 5883 5883 5884 5884 5884 5885 5885 5885 5886 5886 5886 5887 5887 5888 5888 5889 5889 5890 5890 5890 5890 5890 5890 5890 5891 5890 5890 5890 5889 5889 5888 5887 5885 5884 5882 5880 5879 5878 5877 5877 5877 5877 5877 5876 5876 5876 5875 5874 5873 5872 5871 5869 5867 5867 5866 5866 5867 5867 5868 5869 5869 5869 5869 5870 5869 5870 5871 5872 5873 5875 5875 5876 5877 5880 5883 5885 5887 5888 5889 5890 5891 5893 5895
5879 5880 5880 5880 5880 5880 5881 5881 5881 5882 5882 5883 5883 5883 5884 5884 5884 5885 5885 5886 5887 5887 5888 5888 5888 5888 5888 5888 5889 5889 5889 5889 5889 5889 5888 5887 5886 5885 5884 5882 5880 5879 5878 5878 5878 5878 5877 5877 5876 5876 5876 5876 5874 5872 5871 5870 5868 5867 5866 5866 5866 5866 5867 5867 5868 5868 5867 5868 5870 5870 5870 5871 5872 5874 5875 5876 5877 5878 5881 5883 5885 5887 5889 5891 5892 5892 5894 5896
5877 5877 5877 5877 5877 5878 5878 5878 5879 5879 5880 5880 5881 5881 5881 5882 5882 5883 5883 5884 5885 5885 5885 5886 5886 5886 5886 5886 5887 5888 5888 5888 5888 5888 5887 5887 5886 5885 5883 5882 5880 5879 5879 5878 5878 5878 5878 5877 5877 5876 5876 5876 5875 5873 5871 5870 5868 5866 5866 5866 5866 5866 5867 5866 5867 5867 5867 5868 5869 5870 5871 5871 5872 5875 5875 5876 5877 5880 5882 5884 5886 5887 5889 5891 5893 5893 5895 5897
5875 5875 5875 5875 5875 5875 5876 5876 5876 5877 5877 5878 5878 5879 5879 5880 5880 5881 5881 5882 5883 5883 5883 5884 5884 5884 5884 5884 5885 5886 5886 5886 5887 5887 5887 5886 5885 5884 5883 5882 5880 5880 5879 5878 5878 5878 5878 5878 5877 5877 5876 5876 5875 5873 5872 5870 5868 5866 5866 5866 5866 5866 5866 5866 5866 5867 5867 5868 5868 5869 5870 5871 5872 5874 5875 5876 5878 5881 5883 5885 5886 5887 5889 5892 5893 5894 5895 5896
5872 5872 5872 5873 5873 5873 5873 5874 5874 5874 5875 5875 5876 5876 5877 5878 5878 5879 5879 5880 5881 5881 5881 5882 5883 5882 5882 5882 5884 5884 5884 5885 5885 5886 5886 5885 5885 5884 5883 5882 5880 5880 5879 5879 5879 5879 5879 5878 5878 5878 5877 5876 5875 5874 5872 5871 5869 5867 5867 5866 5866 5866 5866 5866 5867 5867 5868 5869 5868 5869 5870 5871 5873 5874 5875 5877 5879 5881 5884 5885 5886 5887 5889 5892 5893 5894 5895 5896
5870 5870 5870 5870 5870 5871 5871 5871 5871 5872 5872 5873 5874 5874 5875 5875 5876 5877 5877 5878 5879 5879 5880 5880 5881 5881 5880 5881 5882 5882 5883 5883 5884 5884 5885 5885 5884 5883 5883 5881 5880 5879 5879 5879 5879 5879 5880 5879 5878 5878 5878 5876 5875 5874 5873 5872 5870 5868 5867 5867 5866 5866 5866 5866 5867 5867 5868 5869 5869 5870 5871 5872 5873 5874 5876 5878 5879 5882 5884 5885 5886 5888 5891 5892 5893 5893 5895 5896
5867 5867 5867 5867 5868 5868 5868 5869 5869 5870 5870 5871 5871 5872 5872 5873 5874 5875 5875 5876 5877 5877 5878 5878 5879 5879 5879 5879 5880 5881 5881 5882 5882 5883 5884 5884 5883 5883 5882 5881 5880 5879 5879 5879 5879 5880 5880 5880 5879 5879 5878 5877 5877 5875 5874 5873 5872 5870 5868 5868 5867 5867 5867 5867 5867 5868 5868 5869 5870 5870 5871 5872 5874 5875 5877 5878 5880 5882 5884 5886 5887 5889 5891 5892 5892 5893 5894 5895
5863 5864 5864 5864 5865 5865 5866 5866 5867 5867 5868 5868 5869 5869 5870 5871 5872 5872 5873 5874 5875 5875 5876 5877 5877 5877 5877 5877 5878 5879 5880 5880 5881 5882 5883 5883 5883 5882 5882 5881 5880 5879 5879 5879 5879 5880 5880 5880 5880 5880 5880 5879 5878 5877 5875 5874 5872 5871 5869 5869 5868 5868 5868 5867 5867 5868 5868 5868 5869 5871 5872 5873 5875 5876 5877 5879 5880 5882 5884 5886 5888 5890 5891 5891 5892 5893 5894 5895
5860 5860 5860 5861 5861 5862 5863 5863 5864 5864 5865 5866 5866 5867 5867 5868 5869 5870 5871 5872 5873 5873 5874 5875 5875 5876 5876 5876 5876 5877 5878 5879 5879 5880 5881 5882 5882 5881 5881 5881 5880 5879 5879 5879 5879 5879 5880 5881 5881 5881 5881 5880 5879 5878 5876 5875 5872 5872 5870 5870 5870 5869 5869 5868 5868 5869 5870 5869 5869 5871 5872 5874 5875 5877 5878 5879 5881 5882 5884 5886 5888 5889 5890 5890 5891 5893 5894 5895
5856 5856 5857 5857 5858 5858 5859 5860 5860 5861 5862 5862 5863 5864 5865 5866 5867 5868 5868 5869 5870 5871 5872 5873 5873 5874 5874 5874 5875 5876 5877 5877 5878 5878 5879 5881 5881 5880 5880 5880 5880 5879 5879 5879 5879 5879 5881 5881 5880 5881 5881 5880 5880 5879 5878 5876 5873 5872 5871 5871 5872 5870 5869 5871 5870 5869 5869 5870 5871 5872 5873 5874 5876 5877 5878 5880 5881 5883 5884 5885 5887 5887 5889 5890 5891 5892 5894 5895
5851 5852 5852 5853 5854 5854 5855 5856 5857 5857 5858 5859 5860 5861 5861 5862 5864 5865 5866 5867 5868 5869 5870 5870 5871 5872 5872 5873 5873 5874 5874 5875 5876 5876 5877 5880 5880 5879 5879 5880 5879 5879 5879 5879 5879 5879 5881 5881 5880 5881 5881 5880 5880 5879 5879 5877 5874 5873 5871 5872 5871 5868 5868 5871 5871 5870 5869 5870 5871 5872 5874 5875 5877 5878 5878 5880 5882 5883 5884 5885 5886 5887 5888 5889 5890 5892 5893 5895
5847 5848 5848 5849 5850 5850 5851 5852 5852 5853 5854 5855 5856 5857 5858 5859 5860 5862 5863 5864 5865 5866 5867 5868 5869 5870 5870 5871 5870 5872 5873 5874 5874 5874 5876 5879 5879 5878 5878 5879 5879 5879 5878 5878 5878 5879 5880 5879 5880 5881 5880 5880 5880 5880 5879 5877 5876 5874 5873 5872 5870 5866 5866 5869 5871 5872 5871 5871 5872 5873 5875 5876 5877 5878 5878 5880 5882 5883 5884 5885 5886 5887 5888 5889 5890 5892 5894 5896
5843 5843 5844 5845 5845 5846 5847 5847 5848 5849 5850 5851 5852 5853 5854 5855 5857 5858 5859 5861 5862 5864 5865 5866 5867 5868 5868 5868 5868 5870 5872 5872 5872 5873 5875 5877 5878 5877 5877 5878 5878 5878 5878 5878 5878 5878 5878 5878 5880 5881 5879 5879 5879 5880 5880 5878 5877 5876 5874 5874 5871 5868 5869 5870 5872 5873 5873 5873 5873 5874 5876 5876 5877 5877 5878 5880 5882 5883 5884 5885 5886 5887 5888 5889 5891 5892 5894 5896
5839 5839 5840 5840 5841 5842 5842 5843 5844 5845 5846 5847 5848 5849 5850 5851 5853 5854 5856 5857 5859 5860 5862 5863 5864 5865 5866 5865 5866 5869 5870 5871 5872 5872 5873 5875 5876 5876 5876 5877 5877 5877 5877 5877 5877 5876 5876 5876 5880 5881 5880 5879 5879 5880 5879 5877 5877 5875 5875 5876 5874 5872 5872 5873 5874 5874 5875 5875 5875 5876 5877 5877 5877 5878 5879 5880 5882 5883 5884 5885 5886 5887 5888 5889 5891 5893 5895 5897
5835 5835 5836 5836 5837 5838 5838 5839 5840 5841 5842 5843 5844 5845 5846 5847 5848 5850 5852 5853 5855 5857 5859 5860 5861 5863 5863 5862 5863 5867 5869 5870 5870 5869 5871 5873 5874 5874 5875 5875 5875 5875 5875 5876 5875 5875 5875 5875 5879 5881 5880 5879 5879 5880 5878 5876 5876 5875 5875 5876 5876 5875 5874 5875 5876 5876 5876 5877 5877 5878 5879 5879 5879 5879 5880 5881 5882 5883 5885 5886 5886 5887 5888 5890 5891 5893 5895 5897
5831 5831 5832 5832 5833 5834 5834 5835 5836 5837 5838 5839 5840 5841 5842 5843 5844 5846 5847 5849 5851 5853 5855 5857 5858 5860 5860 5858 5861 5866 5868 5867 5867 5867 5869 5871 5872 5873 5873 5874 5874 5874 5874 5875 5874 5874 5874 5874 5878 5880 5878 5879 5880 5879 5878 5876 5876 5876 5876 5876 5877 5878 5877 5877 5877 5877 5877 5878 5879 5879 5879 5879 5880 5880 5881 5881 5882 5884 5885 5886 5887 5888 5889 5890 5892 5894 5895 5897
5827 5827 5828 5828 5829 5830 5831 5831 5832 5833 5834 5835 5836 5837 5838 5839 5840 5842 5843 5845 5847 5849 5851 5853 5855 5856 5856 5856 5859 5864 5865 5865 5864 5864 5866 5868 5869 5871 5872 5872 5872 5873 5873 5874 5874 5874 5874 5873 5876 5879 5878 5879 5879 5878 5877 5877 5877 5876 5876 5876 5877 5878 5879 5878 5879 5878 5878 5878 5879 5879 5879 5880 5880 5881 5881 5882 5883 5884 5885 5886 5887 5888 5889 5891 5892 5893 5895 5896
5823 5823 5824 5824 5825 5826 5827 5828 5828 5829 5830 5831 5832 5833 5834 5835 5837 5838 5839 5841 5843 5845 5848 5849 5851 5853 5853 5854 5856 5859 5861 5861 5860 5861 5863 5866 5867 5869 5870 5870 5870 5871 5872 5873 5873 5873 5873 5872 5874 5877 5878 5879 5878 5878 5877 5877 5876 5875 5875 5874 5876 5878 5880 5880 5880 5880 5879 5879 5880 5880 5880 5881 5882 5882 5882 5882 5883 5884 5885 5886 5888 5889 5890 5891 5892 5893 5895 5896
5819 5819 5820 5820 5821 5822 5823 5824 5825 5825 5826 5827 5828 5829 5830 5831 5833 5834 5836 5838 5839 5841 5844 5846 5848 5849 5851 5851 5852 5855 5858 5857 5858 5860 5861 5863 5865 5867 5868 5868 5869 5870 5871 5872 5873 5873 5873 5873 5873 5875 5877 5878 5878 5878 5878 5877 5876 5875 5875 5875 5876 5878 5880 5881 5882 5881 5880 5881 5882 5882 5882 5882 5883 5883 5883 5883 5884 5885 5886 5887 5888 5889 5890 5891 5892 5893 5895 5896
5815 5816 5816 5816 5817 5818 5819 5820 5821 5822 5822 5823 5824 5825 5826 5828 5829 5831 5833 5834 5836 5837 5839 5842 5844 5846 5847 5848 5849 5851 5854 5855 5857 5858 5859 5860 5863 5865 5866 5866 5867 5869 5870 5871 5872 5872 5872 5872 5873 5874 5876 5877 5878 5879 5879 5878 5876 5875 5876 5877 5878 5879 5880 5883 5884 5884 5883 5883 5883 5884 5884 5884 5884 5884 5884 5885 5885 5885 5886 5887 5889 5890 5891 5891 5892 5893 5894 5896
5812 5812 5812 5813 5813 5814 5815 5816 5817 5818 5818 5819 5821 5821 5823 5824 5825 5827 5830 5831 5832 5834 5836 5838 5841 5842 5844 5845 5845 5847 5850 5853 5855 5857 5857 5858 5860 5862 5864 5865 5866 5868 5869 5869 5870 5871 5871 5872 5872 5873 5875 5877 5878 5878 5878 5877 5875 5875 5876 5878 5878 5880 5882 5884 5886 5886 5886 5886 5885 5886 5886 5886 5886 5885 5885 5885 5886 5886 5887 5888 5889 5890 5891 5891 5892 5893 5895 5896
5808 5808 5808 5808 5809 5810 5811 5812 5813 5814 5814 5816 5817 5818 5820 5822 5823 5825 5828 5829 5830 5831 5833 5835 5838 5839 5840 5842 5842 5844 5847 5850 5852 5854 5856 5857 5858 5861 5863 5864 5865 5867 5867 5868 5868 5870 5871 5872 5872 5872 5874 5876 5877 5878 5877 5876 5876 5876 5877 5878 5879 5881 5883 5885 5887 5887 5888 5888 5888 5888 5887 5887 5886 5886 5886 5887 5887 5887 5887 5888 5889 5890 5891 5891 5892 5894 5895 5897
5804 5804 5804 5804 5805 5806 5807 5808 5809 5810 5811 5813 5815 5816 5818 5820 5821 5823 5826 5828 5827 5828 5831 5833 5836 5836 5836 5838 5840 5842 5845 5847 5849 5851 5853 5856 5857 5859 5860 5863 5864 5865 5865 5866 5867 5869 5870 5871 5871 5872 5873 5875 5877 5878 5877 5877 5877 5876 5877 5878 5881 5882 5883 5885 5888 5889 5889 5890 5890 5888 5888 5887 5887 5887 5888 5888 5888 5888 5888 5889 5890 5890 5891 5892 5893 5894 5896 5898
5800 5800 5800 5800 5801 5802 5803 5804 5805 5807 5808 5810 5812 5814 5816 5817 5818 5820 5823 5825 5825 5826 5828 5830 5833 5834 5834 5835 5837 5839 5842 5844 5847 5849 5851 5854 5856 5857 5859 5861 5862 5863 5864 5865 5866 5868 5869 5869 5869 5871 5873 5875 5877 5877 5878 5878 5877 5877 5878 5878 5881 5882 5883 5886 5889 5889 5890 5891 5890 5889 5888 5888 5888 5889 5889 5889 5889 5889 5890 5890 5890 5891 5892 5893 5894 5895 5897 5899
5796 5796 5796 5797 5798 5798 5799 5800 5802 5804 5806 5808 5809 5811 5813 5813 5815 5817 5819 5822 5823 5823 5825 5829 5831 5832 5831 5830 5834 5838 5840 5842 5844 5847 5849 5851 5853 5855 5856 5858 5860 5861 5863 5864 5865 5867 5868 5868 5868 5870 5872 5875 5876 5876 5877 5878 5878 5878 5878 5877 5878 5881 5884 5887 5889 5890 5891 5892 5891 5890 5890 5889 5889 5890 5890 5889 5890 5890 5891 5891 5891 5892 5894 5895 5895 5897 5899 5900
5792 5792 5793 5794 5794 5795 5795 5797 5799 5801 5803 5805 5807 5808 5810 5811 5813 5815 5817 5820 5821 5820 5823 5827 5829 5829 5828 5829 5833 5836 5837 5840 5843 5844 5846 5848 5850 5852 5853 5855 5858 5860 5861 5862 5863 5865 5867 5867 5868 5870 5871 5873 5875 5875 5875 5876 5878 5879 5877 5875 5876 5879 5883 5887 5890 5891 5891 5892 5893 5893 5893 5891 5890 5891 5891 5890 5890 5891 5892 5893 5893 5893 5895 5895 5897 5898 5899 5901
5789 5789 5790 5790 5791 5791 5792 5794 5797 5799 5800 5802 5804 5806 5808 5810 5812 5814 5816 5818 5819 5819 5822 5825 5827 5827 5828 5829 5831 5833 5836 5839 5841 5842 5843 5845 5847 5849 5851 5854 5857 5859 5860 5860 5861 5864 5865 5866 5867 5869 5870 5872 5874 5875 5874 5874 5877 5878 5876 5874 5875 5878 5882 5886 5889 5889 5890 5891 5892 5893 5894 5893 5891 5891 5892 5892 5892 5891 5893 5894 5895 5895 5895 5896 5897 5899 5900 5901
5787 5787 5787 5788 5788 5789 5790 5792 5794 5796 5798 5800 5802 5804 5806 5808 5810 5812 5814 5816 5818 5818 5821 5823 5825 5826 5826 5827 5829 5832 5835 5838 5839 5839 5841 5843 5845 5847 5850 5853 5855 5857 5857 5858 5861 5864 5864 5865 5867 5868 5870 5872 5873 5874 5874 5874 5877 5877 5875 5873 5875 5877 5881 5885 5887 5888 5888 5890 5891 5892 5893 5893 5893 5892 5892 5893 5893 5893 5894 5895 5896 5897 5897 5897 5897 5899 5901 5902
5785 5785 5786 5786 5786 5787 5789 5791 5793 5795 5796 5798 5800 5802 5804 5806 5808 5810 5812 5815 5817 5818 5820 5821 5823 5824 5825 5826 5829 5831 5833 5835 5836 5836 5838 5840 5843 5845 5848 5851 5853 5854 5855 5857 5860 5862 5863 5864 5865 5866 5868 5870 5872 5873 5874 5875 5876 5877 5875 5874 5875 5876 5877 5881 5885 5886 5886 5888 5889 5890 5892 5893 5893 5892 5892 5893 5894 5894 5895 5896 5897 5897 5897 5897 5898 5899 5901 5902
5785 5785 5785 5785 5785 5786 5788 5789 5791 5792 5794 5796 5798 5800 5802 5804 5806 5808 5810 5813 5815 5817 5818 5819 5821 5823 5824 5826 5827 5828 5830 5833 5834 5833 5835 5838 5841 5844 5846 5848 5850 5851 5852 5855 5858 5860 5861 5862 5862 5863 5866 5869 5871 5873 5874 5874 5876 5877 5876 5876 5877 5877 5877 5880 5884 5885 5885 5886 5888 5889 5891 5893 5893 5892 5892 5893 5894 5895 5895 5896 5897 5898 5898 5898 5898 5899 5901 5902
5784 5784 5784 5784 5784 5785 5786 5788 5789 5790 5792 5795 5797 5799 5801 5802 5805 5807 5809 5812 5815 5817 5818 5818 5820 5821 5823 5824 5825 5827 5828 5830 5831 5831 5832 5835 5838 5841 5843 5844 5846 5848 5849 5852 5856 5858 5860 5861 5861 5863 5864 5867 5869 5872 5873 5874 5875 5876 5876 5878 5879 5880 5881 5881 5883 5884 5884 5884 5886 5888 5890 5891 5892 5892 5891 5892 5893 5894 5894 5895 5896 5898 5898 5898 5898 5899 5901 5902
5783 5783 5783 5783 5783 5784 5785 5786 5788 5790 5792 5794 5796 5797 5799 5801 5804 5806 5809 5811 5813 5815 5816 5817 5818 5820 5821 5823 5824 5826 5826 5828 5829 5830 5831 5833 5836 5839 5840 5842 5844 5847 5849 5853 5855 5856 5858 5860 5861 5863 5863 5864 5867 5869 5871 5873 5873 5874 5876 5877 5879 5880 5881 5882 5882 5884 5884 5884 5886 5887 5888 5889 5891 5891 5890 5891 5892 5893 5893 5894 5895 5896 5897 5898 5898 5899 5901 5902
5782 5782 5782 5782 5782 5783 5784 5785 5787 5789 5790 5792 5794 5796 5798 5801 5803 5805 5808 5810 5811 5811 5812 5814 5816 5818 5820 5821 5823 5825 5825 5826 5827 5829 5829 5831 5834 5837 5839 5841 5843 5846 5849 5851 5853 5854 5856 5858 5859 5862 5862 5863 5865 5867 5869 5871 5873 5874 5875 5877 5878 5879 5880 5882 5882 5883 5884 5885 5887 5887 5886 5887 5888 5889 5889 5889 5890 5891 5892 5892 5893 5895 5896 5897 5898 5899 5900 5901
5782 5781 5781 5781 5781 5782 5782 5784 5786 5787 5789 5791 5793 5795 5798 5800 5802 5804 5806 5807 5808 5807 5808 5809 5812 5815 5818 5819 5820 5823 5824 5824 5826 5827 5828 5829 5832 5834 5837 5839 5841 5844 5847 5848 5850 5852 5854 5855 5857 5861 5862 5863 5864 5866 5868 5870 5872 5874 5876 5877 5878 5878 5879 5881 5883 5884 5885 5886 5887 5886 5885 5885 5886 5887 5887 5888 5889 5890 5890 5891 5892 5894 5895 5896 5897 5899 5900 5900
5781 5781 5781 5780 5780 5781 5782 5783 5784 5786 5788 5790 5792 5794 5797 5799 5800 5802 5803 5804 5806 5806 5805 5806 5807 5810 5815 5817 5819 5821 5822 5823 5824 5826 5826 5828 5830 5832 5835 5837 5839 5842 5844 5846 5848 5850 5852 5854 5856 5859 5861 5862 5863 5864 5867 5869 5871 5873 5874 5875 5876 5878 5879 5881 5883 5884 5885 5886 5886 5885 5884 5885 5885 5886 5886 5886 5887 5888 5888 5889 5891 5893 5895 5896 5897 5898 5899 5900
5780 5780 5780 5779 5780 5780 5781 5782 5783 5785 5787 5789 5791 5794 5796 5797 5799 5800 5801 5803 5805 5804 5804 5806 5806 5809 5813 5816 5818 5820 5821 5822 5822 5823 5825 5826 5829 5831 5833 5836 5837 5840 5842 5845 5847 5849 5851 5853 5855 5856 5858 5859 5861 5863 5865 5867 5870 5871 5872 5874 5877 5880 5881 5882 5882 5883 5884 5884 5884 5883 5883 5884 5884 5885 5885 5885 5886 5886 5887 5888 5890 5893 5894 5896 5897 5898 5898 5899
5778 5779 5778 5779 5779 5780 5780 5781 5782 5784 5786 5788 5791 5793 5793 5795 5797 5798 5800 5802 5803 5803 5804 5805 5806 5809 5812 5816 5818 5819 5820 5821 5821 5822 5823 5824 5827 5830 5832 5834 5835 5837 5840 5844 5846 5848 5850 5852 5853 5854 5856 5856 5859 5862 5864 5866 5869 5871 5872 5875 5877 5878 5879 5880 5881 5881 5882 5882 5883 5882 5882 5882 5883 5883 5883 5883 5884 5885 5886 5887 5889 5892 5893 5894 5895 5897 5898 5898
5777 5777 5777 5777 5778 5778 5779 5780 5781 5783 5785 5787 5789 5790 5791 5793 5795 5797 5799 5800 5801 5801 5802 5804 5805 5808 5810 5813 5815 5816 5818 5820 5821 5822 5822 5823 5825 5828 5830 5832 5834 5836 5839 5842 5844 5846 5849 5851 5851 5852 5854 5855 5856 5859 5862 5864 5867 5870 5872 5872 5872 5874 5876 5877 5879 5879 5880 5881 5882 5881 5881 5881 5881 5882 5882 5882 5884 5885 5885 5886 5888 5890 5891 5892 5893 5895 5896 5897
5775 5776 5776 5776 5776 5777 5777 5779 5780 5782 5784 5786 5787 5788 5790 5791 5793 5795 5796 5798 5799 5800 5801 5802 5802 5805 5807 5809 5812 5814 5816 5818 5820 5821 5822 5822 5824 5827 5829 5831 5832 5835 5837 5839 5842 5845 5847 5849 5850 5851 5852 5853 5854 5856 5859 5861 5864 5868 5870 5869 5869 5870 5872 5875 5877 5878 5879 5880 5881 5880 5880 5880 5881 5880 5880 5881 5882 5883 5884 5885 5886 5887 5889 5890 5891 5893 5894 5896
5774 5774 5774 5775 5775 5775 5776 5777 5778 5780 5782 5783 5785 5786 5787 5789 5791 5793 5794 5795 5797 5799 5800 5801 5800 5802 5805 5808 5811 5812 5813 5815 5817 5819 5821 5822 5824 5826 5828 5829 5831 5833 5835 5837 5841 5843 5845 5847 5849 5850 5850 5851 5852 5855 5858 5860 5862 5864 5865 5866 5868 5869 5870 5873 5876 5877 5878 5879 5880 5879 5879 5879 5879 5878 5878 5880 5881 5881 5882 5883 5884 5885 5887 5889 5890 5891 5892 5894
5772 5772 5773 5773 5774 5774 5775 5775 5776 5778 5779 5781 5782 5783 5785 5787 5789 5790 5791 5792 5794 5796 5799 5800 5799 5801 5804 5807 5809 5810 5811 5812 5814 5816 5819 5821 5823 5825 5827 5829 5830 5832 5834 5836 5839 5840 5843 5846 5848 5848 5849 5850 5852 5854 5856 5859 5861 5862 5864 5866 5867 5868 5870 5872 5874 5876 5877 5878 5879 5878 5877 5876 5876 5876 5877 5879 5880 5880 5881 5882 5883 5884 5887 5889 5890 5890 5891 5892
5770 5771 5771 5772 5772 5773 5773 5774 5775 5775 5776 5777 5778 5779 5782 5784 5787 5788 5788 5790 5792 5794 5796 5796 5798 5800 5804 5806 5808 5809 5809 5811 5812 5814 5817 5820 5822 5824 5827 5829 5830 5831 5832 5834 5837 5839 5841 5844 5846 5847 5848 5849 5851 5852 5854 5856 5858 5861 5863 5865 5866 5868 5869 5871 5873 5874 5876 5877 5876 5875 5875 5875 5875 5875 5876 5878 5879 5880 5881 5882 5883 5885 5887 5888 5888 5888 5889 5890
5768 5769 5770 5770 5771 5771 5771 5771 5772 5772 5773 5774 5775 5777 5779 5782 5784 5785 5786 5788 5790 5792 5792 5793 5796 5800 5803 5805 5806 5807 5809 5809 5810 5812 5815 5819 5822 5824 5826 5829 5830 5831 5831 5833 5835 5837 5839 5841 5844 5846 5847 5848 5849 5850 5852 5854 5855 5858 5860 5862 5864 5866 5868 5870 5872 5872 5873 5876 5875 5873 5873 5873 5874 5875 5876 5878 5879 5880 5881 5882 5883 5884 5885 5885 5886 5886 5887 5887
5767 5767 5768 5769 5769 5769 5769 5769 5769 5770 5772 5774 5775 5776 5777 5779 5781 5783 5784 5786 5789 5791 5791 5792 5795 5799 5801 5802 5803 5805 5807 5808 5808 5810 5812 5816 5819 5821 5823 5826 5829 5830 5830 5832 5834 5836 5837 5839 5842 5844 5846 5847 5848 5849 5851 5851 5853 5855 5858 5860 5863 5865 5867 5869 5871 5871 5872 5874 5874 5872 5872 5872 5872 5874 5875 5876 5878 5879 5880 5880 5881 5882 5882 5882 5883 5884 5885 5885
5766 5765 5766 5766 5766 5767 5767 5767 5768 5769 5770 5771 5773 5774 5776 5778 5780 5781 5782 5784 5787 5790 5792 5793 5795 5797 5799 5800 5801 5803 5805 5806 5807 5809 5811 5813 5816 5818 5820 5822 5825 5828 5830 5831 5833 5834 5836 5838 5841 5843 5844 5846 5848 5849 5850 5850 5851 5854 5857 5859 5861 5864 5866 5867 5868 5870 5871 5872 5873 5872 5872 5871 5872 5872 5873 5875 5876 5878 5879 5879 5880 5880 5880 5880 5881 5881 5882 5883
5764 5763 5763 5763 5763 5764 5765 5766 5766 5766 5766 5767 5769 5771 5773 5775 5776 5777 5779 5782 5784 5788 5792 5794 5794 5796 5797 5798 5800 5801 5803 5804 5806 5808 5810 5812 5814 5815 5817 5817 5819 5823 5827 5829 5830 5832 5834 5836 5838 5841 5843 5845 5847 5848 5849 5849 5850 5852 5855 5858 5860 5862 5864 5864 5865 5867 5868 5870 5872 5872 5871 5871 5871 5872 5873 5875 5876 5877 5878 5879 5879 5879 5879 5879 5880 5880 5880 5880
5763 5762 5761 5761 5761 5762 5762 5763 5764 5764 5764 5765 5766 5768 5770 5771 5772 5774 5775 5778 5781 5784 5788 5791 5791 5793 5795 5796 5797 5799 5801 5803 5805 5807 5809 5810 5810 5812 5814 5815 5816 5819 5823 5826 5828 5829 5831 5833 5835 5837 5839 5843 5845 5847 5847 5847 5848 5849 5850 5854 5858 5861 5862 5862 5862 5865 5866 5868 5870 5871 5870 5870 5870 5871 5873 5874 5875 5876 5877 5877 5877 5877 5877 5878 5879 5879 5879 5879
5761 5760 5759 5760 5760 5760 5760 5761 5761 5762 5763 5764 5764 5766 5767 5768 5770 5771 5772 5774 5776 5778 5782 5786 5788 5791 5793 5794 5795 5796 5798 5800 5802 5804 5805 5806 5807 5809 5813 5814 5815 5817 5820 5823 5825 5828 5830 5831 5832 5834 5836 5839 5842 5844 5845 5846 5846 5847 5848 5850 5853 5856 5859 5860 5861 5863 5865 5866 5868 5869 5869 5870 5870 5870 5872 5873 5874 5875 5876 5876 5876 5876 5875 5876 5877 5878 5878 5878
5759 5759 5758 5758 5758 5758 5758 5759 5759 5759 5761 5762 5763 5763 5764 5766 5768 5769 5769 5771 5773 5776 5778 5781 5784 5787 5789 5791 5793 5793 5793 5795 5798 5800 5802 5803 5805 5808 5811 5812 5814 5815 5817 5818 5821 5825 5829 5830 5831 5832 5833 5835 5838 5840 5841 5843 5844 5845 5847 5849 5850 5852 5854 5857 5860 5862 5863 5865 5866 5867 5868 5869 5870 5869 5870 5871 5872 5873 5874 5875 5875 5875 5874 5874 5875 5876 5876 5876
5757 5757 5757 5756 5756 5756 5756 5756 5757 5757 5758 5759 5759 5760 5761 5763 5764 5765 5765 5768 5771 5773 5774 5775 5778 5781 5783 5785 5787 5789 5789 5791 5793 5796 5798 5801 5804 5807 5809 5810 5811 5813 5814 5815 5816 5821 5826 5828 5828 5829 5831 5833 5836 5837 5838 5840 5841 5843 5844 5847 5849 5850 5851 5853 5856 5858 5860 5862 5864 5865 5865 5866 5868 5868 5868 5868 5869 5870 5871 5873 5873 5873 5872 5872 5872 5873 5873 5873
5755 5755 5755 5754 5754 5753 5753 5754 5754 5755 5754 5755 5756 5758 5759 5760 5762 5763 5764 5765 5767 5768 5768 5770 5773 5775 5778 5780 5782 5783 5785 5787 5790 5793 5796 5799 5802 5804 5806 5808 5809 5810 5812 5813 5815 5818 5822 5823 5825 5826 5828 5830 5833 5835 5836 5837 5838 5841 5843 5845 5847 5848 5849 5850 5852 5854 5857 5859 5861 5862 5863 5864 5866 5867 5867 5867 5867 5867 5868 5870 5871 5871 5871 5870 5870 5870 5870 5870
5752 5752 5752 5752 5751 5751 5751 5751 5752 5752 5752 5753 5755 5757 5758 5760 5761 5762 5762 5762 5763 5764 5765 5766 5769 5772 5775 5776 5777 5779 5781 5784 5786 5790 5793 5796 5799 5801 5803 5806 5808 5809 5809 5811 5814 5815 5816 5818 5820 5822 5824 5827 5830 5833 5834 5834 5837 5840 5842 5843 5844 5845 5846 5848 5849 5851 5853 5855 5857 5859 5860 5862 5863 5864 5865 5865 5865 5865 5866 5867 5868 5868 5868 5868 5868 5868 5868 5869